STARLINK-11263, 60725

Orbit data source: Space-Track

STARLINK-11263, 60725 is a payload satellite owned by SpaceX/Seattle (US) in LEO that was launched on Wed, 28 Aug 2024 UTC via an FALCON 9 launch vehicle from the Air Force Eastern Test Range (AFETR). Payload-class satellites include a variety of spacecraft equipped with specific instruments for various scientific and technological missions. These include communications satellites like Starlink; space stations such as the ISS; scientific satellites like the Hubble; Earth observation satellites from companies like Planet Labs, Umbra, and HawkEye 360; GPS; miniature CubeSats for education and research; and military/defense satellites.

Loading next visibility...
Identifier
60725, 2024-152F
Orbit
LEO
Last TLE update
21 hours ago
Origin
Manufacturer
SpaceX/Seattle
Mission
Operational Commercial Communications
Bus & Motor
STARLINK V2M, Unknown motor
Mass
730 kg wet, ~700 kg dry
Launch date (UTC)
2024-08-28 (8 months ago)
Launch vehicle
FALCON 9
Launch site
Air Force Eastern Test Range (AFETR)
Object type
Payload
Rocket body
Debris
Shape & HBR
Box + 2 Pan, 29 m
Radar Cross Section
36.964 m², Large (>1 m²)

Expand to show TLE details & history

TLE from 21 hours ago
0 STARLINK-11263
1 60725U 24152F   25128.38906778 -.00000624  00000-0 -29139-6 0  9994
2 60725  53.1594 181.3140 0001383  96.9702 263.1474 15.69703057 40885
Epoch: 2025-05-08T09:20Z
Definitive object data (Epoch: 2025-05-08T09:20:15.456Z)
Latitude
0.00005°
Longitude
174.78937°
Altitude
360.773 km
Speed
7.694 km/s
True Right ascension
12h 05m 15s
True Declination
0° 00' 00"
Sunlit
Object was in full shadow at TLE epoch
Visualization TLE readout
Latitude
-14.46189°
Longitude
159.33191°
Altitude
364.076 km
Speed
7.691 km/s
Apparent Right ascension
07h 55m 39s
Apparent Declination
-45° 53' 09"
Sunlit
Object is in full shadow
Visualization observer readout
Local Sidereal Time
14:48:05
Azimuth
236.463° WSW
Elevation
-35.576°
Doppler factor
1
Orbital elements
Apogee altitude
360.939 km
Perigee altitude
359.076 km
Semi-major axis
6,738.144 km
Eccentricity
0.0001383
Inclination
53.1594°
RAAN
181.314°
Arg. of periapsis
96.9702°
True anomaly
263.13167°
Mean anomaly
263.1474°
Eccentric anomaly
263.13953°
Mean motion
3.92403 °/min
BSTAR
-2.9139e-7
Orbital period
91.74 mins
Loading maneuver chart data...
Loading SW <> Apogee altitude chart data...
Loading historical data...
Loading historical data...
Loading historical data...
Loading historical data...
Loading historical data...
Loading historical data...
Loading historical data...

STARLINK-11263 Visibility forecast

Observer location: undefined°, undefined°

Span
Click to sort rows by Start time (UTC) header in descending order
Start Az.
Max El. time (UTC)
Max El. Az.
Max El.
End time (UTC)
End Az.
4 mins2025-05-09 06:57:13.765Z271.541° WNW2025-05-09 06:59:13.765Z330.195° NNW26.13°2025-05-09 07:01:13.765Z25.158° NE
4 mins2025-05-09 13:22:13.765Z285.125° WNW2025-05-09 13:24:13.765Z196.96° SSW31.677°2025-05-09 13:26:13.765Z154.447° SSE
4 mins2025-05-10 05:51:13.765Z231.973° WSW2025-05-10 05:52:13.765Z237.191° WSW40.741°2025-05-10 05:55:13.765Z48.904° ENE
|